owner,sensor,date,latitude,longitude,vertical_datum,direction_of_sea_water_velocity,sea_water_speed,upward_sea_water_velocity,qcFlag 
TABS,ioos:station:wmo:42051:1,2011-12-01T00:00:00Z,29.6350,-93.6417,2.0,314.2154929,14.97085502,-99999.0,'11111222,11111222,99999999' 
TABS,ioos:station:wmo:42051:1,2011-12-01T00:30:00Z,29.6350,-93.6417,2.0,315.3733289,10.86139033,-99999.0,'11111222,11111222,99999999' 
TABS,ioos:station:wmo:42051:1,2011-12-01T01:00:00Z,29.6350,-93.6417,2.0,313.6488998,10.79345172,-99999.0,'11111222,11111222,99999999' 
TABS,ioos:station:wmo:42051:1,2011-12-01T01:30:00Z,29.6350,-93.6417,2.0,307.4935706,10.66263101,-99999.0,'11111222,11111222,99999999' 
TABS,ioos:station:wmo:42051:1,2011-12-01T02:00:00Z,29.6350,-93.6417,2.0,318.0425368,10.12589749,-99999.0,'11111222,11111222,99999999' 
TABS,ioos:station:wmo:42051:1,2011-12-01T02:30:00Z,29.6350,-93.6417,2.0,325.0418907,9.773438494,-99999.0,'11133222,11111222,99999999' 
TABS,ioos:station:wmo:42051:1,2011-12-01T03:00:00Z,29.6350,-93.6417,2.0,314.8786691,6.660960892,-99999.0,'11133222,11111222,99999999' 
TABS,ioos:station:wmo:42051:1,2011-12-01T03:30:00Z,29.6350,-93.6417,2.0,330.3444189,6.386556193,-99999.0,'11133222,11111222,99999999' 
TABS,ioos:station:wmo:42051:1,2011-12-01T04:00:00Z,29.6350,-93.6417,2.0,329.9235744,6.425107003,-99999.0,'11133222,11111222,99999999' 
TABS,ioos:station:wmo:42051:1,2011-12-01T04:30:00Z,29.6350,-93.6417,2.0,354.668064,4.5195575,-99999.0,'11133222,11111222,99999999' 
TABS,ioos:station:wmo:42051:1,2011-12-01T05:00:00Z,29.6350,-93.6417,2.0,321.4558528,2.326993769,-99999.0,'11133222,11111222,99999999' 
TABS,ioos:station:wmo:42051:1,2011-12-01T05:30:00Z,29.6350,-93.6417,2.0,327.8974238,5.607396901,-99999.0,'11133222,11111222,99999999' 
TABS,ioos:station:wmo:42051:1,2011-12-01T06:00:00Z,29.6350,-93.6417,2.0,347.1064966,3.405877273,-99999.0,'11133222,11111222,99999999' 
TABS,ioos:station:wmo:42051:1,2011-12-01T06:30:00Z,29.6350,-93.6417,2.0,338.9627486,3.899948718,-99999.0,'11133222,11111222,99999999' 
TABS,ioos:station:wmo:42051:1,2011-12-01T07:00:00Z,29.6350,-93.6417,2.0,325.2073402,5.187407831,-99999.0,'11133222,11111222,99999999' 
TABS,ioos:station:wmo:42051:1,2011-12-01T07:30:00Z,29.6350,-93.6417,2.0,338.2536017,3.886605202,-99999.0,'11133222,11111222,99999999' 
TABS,ioos:station:wmo:42051:1,2011-12-01T08:00:00Z,29.6350,-93.6417,2.0,315.7386208,5.487604213,-99999.0,'11133222,11111222,99999999' 
TABS,ioos:station:wmo:42051:1,2011-12-01T08:30:00Z,29.6350,-93.6417,2.0,319.6795639,5.980844422,-99999.0,'11133222,11111222,99999999' 
TABS,ioos:station:wmo:42051:1,2011-12-01T09:00:00Z,29.6350,-93.6417,2.0,316.4252866,7.108621526,-99999.0,'11133222,11111222,99999999' 
TABS,ioos:station:wmo:42051:1,2011-12-01T09:30:00Z,29.6350,-93.6417,2.0,318.719301,5.668791758,-99999.0,'11133222,11111222,99999999' 
TABS,ioos:station:wmo:42051:1,2011-12-01T10:00:00Z,29.6350,-93.6417,2.0,315.3518183,5.763028718,-99999.0,'11133222,11111222,99999999' 
TABS,ioos:station:wmo:42051:1,2011-12-01T10:30:00Z,29.6350,-93.6417,2.0,294.5729185,5.530904085,-99999.0,'11133222,11111222,99999999' 
TABS,ioos:station:wmo:42051:1,2011-12-01T11:00:00Z,29.6350,-93.6417,2.0,280.7678154,4.763874474,-99999.0,'11133222,11111222,99999999' 
TABS,ioos:station:wmo:42051:1,2011-12-01T11:30:00Z,29.6350,-93.6417,2.0,285.5948305,7.848929863,-99999.0,'11133222,11111222,99999999' 
TABS,ioos:station:wmo:42051:1,2011-12-01T12:00:00Z,29.6350,-93.6417,2.0,288.3699456,8.313633381,-99999.0,'11133222,11111222,99999999' 
TABS,ioos:station:wmo:42051:1,2011-12-01T12:30:00Z,29.6350,-93.6417,2.0,294.4315833,7.44679797,-99999.0,'11133222,11111222,99999999' 
TABS,ioos:station:wmo:42051:1,2011-12-01T13:00:00Z,29.6350,-93.6417,2.0,286.8637495,6.68757056,-99999.0,'11133222,11111222,99999999' 
TABS,ioos:station:wmo:42051:1,2011-12-01T14:30:00Z,29.6350,-93.6417,2.0,282.4947254,7.210769723,-99999.0,'11133222,11111222,99999999' 
TABS,ioos:station:wmo:42051:1,2011-12-01T15:00:00Z,29.6350,-93.6417,2.0,255.2135213,6.857069345,-99999.0,'11133222,11111222,99999999' 
TABS,ioos:station:wmo:42051:1,2011-12-01T15:30:00Z,29.6350,-93.6417,2.0,250.3175821,6.828975033,-99999.0,'11133222,11111222,99999999' 
TABS,ioos:station:wmo:42051:1,2011-12-01T16:00:00Z,29.6350,-93.6417,2.0,263.4511094,8.505492343,-99999.0,'11133222,11111222,99999999' 
TABS,ioos:station:wmo:42051:1,2011-12-01T16:30:00Z,29.6350,-93.6417,2.0,251.5476565,10.64738935,-99999.0,'11111222,11111222,99999999' 
TABS,ioos:station:wmo:42051:1,2011-12-01T17:00:00Z,29.6350,-93.6417,2.0,245.183532,8.79184281,-99999.0,'11133222,11111222,99999999' 
TABS,ioos:station:wmo:42051:1,2011-12-01T17:30:00Z,29.6350,-93.6417,2.0,250.0942375,11.33733655,-99999.0,'11111222,11111222,99999999' 
TABS,ioos:station:wmo:42051:1,2011-12-01T18:00:00Z,29.6350,-93.6417,2.0,259.832326,12.29304275,-99999.0,'11111222,11111222,99999999' 
TABS,ioos:station:wmo:42051:1,2011-12-01T18:30:00Z,29.6350,-93.6417,2.0,260.9314896,11.23036064,-99999.0,'11111222,11111222,99999999' 
TABS,ioos:station:wmo:42051:1,2011-12-01T19:00:00Z,29.6350,-93.6417,2.0,248.7723227,12.78762292,-99999.0,'11111222,11111222,99999999' 
TABS,ioos:station:wmo:42051:1,2011-12-01T19:30:00Z,29.6350,-93.6417,2.0,254.4965732,16.01259817,-99999.0,'11111222,11111222,99999999' 
TABS,ioos:station:wmo:42051:1,2011-12-01T20:00:00Z,29.6350,-93.6417,2.0,260.0835514,16.60810645,-99999.0,'11111222,11111222,99999999' 
TABS,ioos:station:wmo:42051:1,2011-12-01T20:30:00Z,29.6350,-93.6417,2.0,258.7675877,15.86384884,-99999.0,'11111222,11111222,99999999' 
TABS,ioos:station:wmo:42051:1,2011-12-01T21:00:00Z,29.6350,-93.6417,2.0,256.4854301,15.70483365,-99999.0,'11111222,11111222,99999999' 
TABS,ioos:station:wmo:42051:1,2011-12-01T21:30:00Z,29.6350,-93.6417,2.0,258.7936578,18.37022863,-99999.0,'11111222,11111222,99999999' 
TABS,ioos:station:wmo:42051:1,2011-12-01T22:00:00Z,29.6350,-93.6417,2.0,260.0689725,19.30930605,-99999.0,'11111222,11111222,99999999' 
TABS,ioos:station:wmo:42051:1,2011-12-01T22:30:00Z,29.6350,-93.6417,2.0,258.9674555,21.84367185,-99999.0,'11111222,11111222,99999999' 
TABS,ioos:station:wmo:42051:1,2011-12-01T23:00:00Z,29.6350,-93.6417,2.0,259.417078,20.8547093,-99999.0,'11111222,11111222,99999999' 
TABS,ioos:station:wmo:42051:1,2011-12-01T23:30:00Z,29.6350,-93.6417,2.0,256.6838299,21.7959744,-99999.0,'11111222,11111222,99999999' 
TABS,ioos:station:wmo:42051:1,2011-12-02T00:00:00Z,29.6350,-93.6417,2.0,266.88754,25.78803017,-99999.0,'11111222,11111222,99999999' 
TABS,ioos:station:wmo:42051:1,2011-12-02T00:30:00Z,29.6350,-93.6417,2.0,261.6130031,24.95687681,-99999.0,'11111222,11111222,99999999' 
TABS,ioos:station:wmo:42051:1,2011-12-02T01:00:00Z,29.6350,-93.6417,2.0,254.3359892,23.74168697,-99999.0,'11111222,11111222,99999999' 
TABS,ioos:station:wmo:42051:1,2011-12-02T01:30:00Z,29.6350,-93.6417,2.0,260.4500228,23.74910525,-99999.0,'11111222,11111222,99999999' 
TABS,ioos:station:wmo:42051:1,2011-12-02T02:00:00Z,29.6350,-93.6417,2.0,265.4665676,22.9016375,-99999.0,'11111222,11111222,99999999' 
TABS,ioos:station:wmo:42051:1,2011-12-02T02:30:00Z,29.6350,-93.6417,2.0,269.8566975,24.06007481,-99999.0,'11111222,11111222,99999999' 
TABS,ioos:station:wmo:42051:1,2011-12-02T03:00:00Z,29.6350,-93.6417,2.0,258.5267034,24.13218805,-99999.0,'11111222,11111222,99999999' 
TABS,ioos:station:wmo:42051:1,2011-12-02T03:30:00Z,29.6350,-93.6417,2.0,259.9594763,24.77947538,-99999.0,'11111222,11111222,99999999' 
TABS,ioos:station:wmo:42051:1,2011-12-02T04:00:00Z,29.6350,-93.6417,2.0,258.6587383,25.42646063,-99999.0,'11111222,11111222,99999999' 
TABS,ioos:station:wmo:42051:1,2011-12-02T04:30:00Z,29.6350,-93.6417,2.0,256.5423289,23.76242833,-99999.0,'11111222,11111222,99999999' 
TABS,ioos:station:wmo:42051:1,2011-12-02T05:00:00Z,29.6350,-93.6417,2.0,258.2551036,24.56425248,-99999.0,'11111222,11111222,99999999' 
TABS,ioos:station:wmo:42051:1,2011-12-02T05:30:00Z,29.6350,-93.6417,2.0,260.0548427,23.62497196,-99999.0,'11111222,11111222,99999999' 
TABS,ioos:station:wmo:42051:1,2011-12-02T06:00:00Z,29.6350,-93.6417,2.0,249.7366307,24.48532826,-99999.0,'11111222,11111222,99999999' 
TABS,ioos:station:wmo:42051:1,2011-12-02T06:30:00Z,29.6350,-93.6417,2.0,261.6013035,19.03410886,-99999.0,'11111222,11111222,99999999' 
TABS,ioos:station:wmo:42051:1,2011-12-02T07:00:00Z,29.6350,-93.6417,2.0,252.2958921,17.59318334,-99999.0,'11111222,11111222,99999999' 
TABS,ioos:station:wmo:42051:1,2011-12-02T07:30:00Z,29.6350,-93.6417,2.0,253.7551377,18.94640071,-99999.0,'11111222,11111222,99999999' 
TABS,ioos:station:wmo:42051:1,2011-12-02T08:00:00Z,29.6350,-93.6417,2.0,249.1043,19.96288807,-99999.0,'11111222,11111222,99999999' 
TABS,ioos:station:wmo:42051:1,2011-12-02T08:30:00Z,29.6350,-93.6417,2.0,255.1386664,19.37817845,-99999.0,'11111222,11111222,99999999' 
TABS,ioos:station:wmo:42051:1,2011-12-02T09:00:00Z,29.6350,-93.6417,2.0,265.1250062,19.2998057,-99999.0,'11111222,11111222,99999999' 
TABS,ioos:station:wmo:42051:1,2011-12-02T11:00:00Z,29.6350,-93.6417,2.0,270.6676312,19.7513392,-99999.0,'11111222,11111222,99999999' 
TABS,ioos:station:wmo:42051:1,2011-12-02T11:30:00Z,29.6350,-93.6417,2.0,253.9409632,18.76211609,-99999.0,'11111222,11111222,99999999' 
TABS,ioos:station:wmo:42051:1,2011-12-02T12:00:00Z,29.6350,-93.6417,2.0,259.3663618,12.9524129,-99999.0,'11111222,11111222,99999999' 
TABS,ioos:station:wmo:42051:1,2011-12-02T12:30:00Z,29.6350,-93.6417,2.0,267.9280864,18.81229385,-99999.0,'11111222,11111222,99999999' 
TABS,ioos:station:wmo:42051:1,2011-12-02T13:00:00Z,29.6350,-93.6417,2.0,266.4586993,22.18234658,-99999.0,'11111222,11111222,99999999' 
TABS,ioos:station:wmo:42051:1,2011-12-02T13:30:00Z,29.6350,-93.6417,2.0,242.6617509,17.57262075,-99999.0,'11111222,11111222,99999999' 
TABS,ioos:station:wmo:42051:1,2011-12-02T14:00:00Z,29.6350,-93.6417,2.0,256.7702013,20.66850986,-99999.0,'11111222,11111222,99999999' 
TABS,ioos:station:wmo:42051:1,2011-12-02T14:30:00Z,29.6350,-93.6417,2.0,261.6986214,18.493753,-99999.0,'11111222,11111222,99999999' 
TABS,ioos:station:wmo:42051:1,2011-12-02T15:00:00Z,29.6350,-93.6417,2.0,267.2498397,22.09544071,-99999.0,'11111222,11111222,99999999' 
TABS,ioos:station:wmo:42051:1,2011-12-02T15:30:00Z,29.6350,-93.6417,2.0,263.2930155,20.55062286,-99999.0,'11111222,11111222,99999999' 
TABS,ioos:station:wmo:42051:1,2011-12-02T16:00:00Z,29.6350,-93.6417,2.0,262.2551142,19.96207655,-99999.0,'11111222,11111222,99999999' 
TABS,ioos:station:wmo:42051:1,2011-12-02T16:30:00Z,29.6350,-93.6417,2.0,265.2711142,17.5898664,-99999.0,'11111222,11111222,99999999' 
TABS,ioos:station:wmo:42051:1,2011-12-02T17:00:00Z,29.6350,-93.6417,2.0,260.089104,17.02403595,-99999.0,'11111222,11111222,99999999' 
TABS,ioos:station:wmo:42051:1,2011-12-02T17:30:00Z,29.6350,-93.6417,2.0,262.8745794,13.38334786,-99999.0,'11111222,11111222,99999999' 
TABS,ioos:station:wmo:42051:1,2011-12-02T18:00:00Z,29.6350,-93.6417,2.0,265.9051395,13.86538856,-99999.0,'11111222,11111222,99999999' 
TABS,ioos:station:wmo:42051:1,2011-12-02T18:30:00Z,29.6350,-93.6417,2.0,251.9203036,18.85070025,-99999.0,'11111222,11111222,99999999' 
TABS,ioos:station:wmo:42051:1,2011-12-02T19:00:00Z,29.6350,-93.6417,2.0,266.6695312,17.55964977,-99999.0,'11111222,11111222,99999999' 
TABS,ioos:station:wmo:42051:1,2011-12-02T19:30:00Z,29.6350,-93.6417,2.0,275.8480557,17.47091297,-99999.0,'11111222,11111222,99999999' 
TABS,ioos:station:wmo:42051:1,2011-12-02T20:00:00Z,29.6350,-93.6417,2.0,266.3036638,20.32226611,-99999.0,'11111222,11111222,99999999' 
TABS,ioos:station:wmo:42051:1,2011-12-02T20:30:00Z,29.6350,-93.6417,2.0,267.4583501,17.81752227,-99999.0,'11111222,11111222,99999999' 
TABS,ioos:station:wmo:42051:1,2011-12-02T21:00:00Z,29.6350,-93.6417,2.0,268.0719307,17.53992588,-99999.0,'11111222,11111222,99999999' 
TABS,ioos:station:wmo:42051:1,2011-12-02T21:30:00Z,29.6350,-93.6417,2.0,269.3594309,16.11100556,-99999.0,'11111222,11111222,99999999' 
TABS,ioos:station:wmo:42051:1,2011-12-02T22:00:00Z,29.6350,-93.6417,2.0,256.4437835,14.46290773,-99999.0,'11111222,11111222,99999999' 
TABS,ioos:station:wmo:42051:1,2011-12-02T22:30:00Z,29.6350,-93.6417,2.0,256.0789336,16.83443198,-99999.0,'11111222,11111222,99999999' 
TABS,ioos:station:wmo:42051:1,2011-12-02T23:00:00Z,29.6350,-93.6417,2.0,257.9204155,12.85461007,-99999.0,'11111222,11111222,99999999' 
TABS,ioos:station:wmo:42051:1,2011-12-02T23:30:00Z,29.6350,-93.6417,2.0,257.8273617,13.94347518,-99999.0,'11111222,11111222,99999999' 
TABS,ioos:station:wmo:42051:1,2011-12-03T00:00:00Z,29.6350,-93.6417,2.0,253.296781,15.2744558,-99999.0,'11111222,11111222,99999999' 
TABS,ioos:station:wmo:42051:1,2011-12-03T00:30:00Z,29.6350,-93.6417,2.0,260.3562098,14.56582301,-99999.0,'11111222,11111222,99999999' 
TABS,ioos:station:wmo:42051:1,2011-12-03T01:00:00Z,29.6350,-93.6417,2.0,255.638198,17.09418615,-99999.0,'11111222,11111222,99999999' 
TABS,ioos:station:wmo:42051:1,2011-12-03T01:30:00Z,29.6350,-93.6417,2.0,264.6568088,15.03532175,-99999.0,'11111222,11111222,99999999' 
TABS,ioos:station:wmo:42051:1,2011-12-03T02:00:00Z,29.6350,-93.6417,2.0,255.8761753,14.34357347,-99999.0,'11111222,11111222,99999999' 
TABS,ioos:station:wmo:42051:1,2011-12-03T02:30:00Z,29.6350,-93.6417,2.0,255.4528083,14.96989312,-99999.0,'11111222,11111222,99999999' 
TABS,ioos:station:wmo:42051:1,2011-12-03T03:00:00Z,29.6350,-93.6417,2.0,265.9468101,17.40351976,-99999.0,'11111222,11111222,99999999' 
TABS,ioos:station:wmo:42051:1,2011-12-03T03:30:00Z,29.6350,-93.6417,2.0,249.8156515,17.30255761,-99999.0,'11111222,11111222,99999999' 
TABS,ioos:station:wmo:42051:1,2011-12-03T04:00:00Z,29.6350,-93.6417,2.0,258.0174983,17.0515102,-99999.0,'11111222,11111222,99999999' 
TABS,ioos:station:wmo:42051:1,2011-12-03T04:30:00Z,29.6350,-93.6417,2.0,247.7659952,17.23116073,-99999.0,'11111222,11111222,99999999' 
TABS,ioos:station:wmo:42051:1,2011-12-03T05:00:00Z,29.6350,-93.6417,2.0,268.322483,17.76761098,-99999.0,'11111222,11111222,99999999' 
TABS,ioos:station:wmo:42051:1,2011-12-03T05:30:00Z,29.6350,-93.6417,2.0,256.0221074,16.56034118,-99999.0,'11111222,11111222,99999999' 
TABS,ioos:station:wmo:42051:1,2011-12-03T06:00:00Z,29.6350,-93.6417,2.0,238.7163377,18.75709199,-99999.0,'11111222,11111222,99999999' 
TABS,ioos:station:wmo:42051:1,2011-12-03T06:30:00Z,29.6350,-93.6417,2.0,254.4177837,17.53442899,-99999.0,'11111222,11111222,99999999' 
TABS,ioos:station:wmo:42051:1,2011-12-03T07:00:00Z,29.6350,-93.6417,2.0,237.5779501,20.42351831,-99999.0,'11111222,11111222,99999999' 
TABS,ioos:station:wmo:42051:1,2011-12-03T07:30:00Z,29.6350,-93.6417,2.0,246.4112352,21.61616525,-99999.0,'11111222,11111222,99999999' 
TABS,ioos:station:wmo:42051:1,2011-12-03T08:00:00Z,29.6350,-93.6417,2.0,241.1096976,25.68673198,-99999.0,'11111222,11111222,99999999' 
TABS,ioos:station:wmo:42051:1,2011-12-03T08:30:00Z,29.6350,-93.6417,2.0,240.9899351,21.07399582,-99999.0,'11111222,11111222,99999999' 
TABS,ioos:station:wmo:42051:1,2011-12-03T09:00:00Z,29.6350,-93.6417,2.0,242.9354894,20.02251233,-99999.0,'11111222,11111222,99999999' 
TABS,ioos:station:wmo:42051:1,2011-12-03T09:30:00Z,29.6350,-93.6417,2.0,247.6825537,21.25183521,-99999.0,'11111222,11111222,99999999' 
TABS,ioos:station:wmo:42051:1,2011-12-03T10:00:00Z,29.6350,-93.6417,2.0,241.0907391,27.11936024,-99999.0,'11111222,11111222,99999999' 
TABS,ioos:station:wmo:42051:1,2011-12-03T10:30:00Z,29.6350,-93.6417,2.0,234.1041727,28.10806468,-99999.0,'11111222,11111222,99999999' 
TABS,ioos:station:wmo:42051:1,2011-12-03T11:00:00Z,29.6350,-93.6417,2.0,232.726131,26.40265517,-99999.0,'11111222,11111222,99999999' 
TABS,ioos:station:wmo:42051:1,2011-12-03T11:30:00Z,29.6350,-93.6417,2.0,245.4167083,24.56672546,-99999.0,'11111222,11111222,99999999' 
TABS,ioos:station:wmo:42051:1,2011-12-03T12:00:00Z,29.6350,-93.6417,2.0,254.8375461,25.922361,-99999.0,'11111222,11111222,99999999' 
TABS,ioos:station:wmo:42051:1,2011-12-03T12:30:00Z,29.6350,-93.6417,2.0,252.323258,23.64642256,-99999.0,'11111222,11111222,99999999' 
TABS,ioos:station:wmo:42051:1,2011-12-03T13:00:00Z,29.6350,-93.6417,2.0,254.8578002,23.50607794,-99999.0,'11111222,11111222,99999999' 
TABS,ioos:station:wmo:42051:1,2011-12-03T13:30:00Z,29.6350,-93.6417,2.0,254.316508,24.30483285,-99999.0,'11111222,11111222,99999999' 
TABS,ioos:station:wmo:42051:1,2011-12-03T14:00:00Z,29.6350,-93.6417,2.0,245.7217553,20.84334186,-99999.0,'11111222,11111222,99999999' 
TABS,ioos:station:wmo:42051:1,2011-12-03T14:30:00Z,29.6350,-93.6417,2.0,251.9421794,27.35745785,-99999.0,'11111222,11111222,99999999' 
TABS,ioos:station:wmo:42051:1,2011-12-03T15:00:00Z,29.6350,-93.6417,2.0,257.9416891,28.24313014,-99999.0,'11111222,11111222,99999999' 
TABS,ioos:station:wmo:42051:1,2011-12-03T15:30:00Z,29.6350,-93.6417,2.0,254.5039225,25.90150575,-99999.0,'11111222,11111222,99999999' 
TABS,ioos:station:wmo:42051:1,2011-12-03T16:00:00Z,29.6350,-93.6417,2.0,253.5378311,28.19577451,-99999.0,'11111222,11111222,99999999' 
TABS,ioos:station:wmo:42051:1,2011-12-03T16:30:00Z,29.6350,-93.6417,2.0,251.6203407,26.03820654,-99999.0,'11111222,11111222,99999999' 
TABS,ioos:station:wmo:42051:1,2011-12-03T17:00:00Z,29.6350,-93.6417,2.0,249.4622531,21.54961717,-99999.0,'11111222,11111222,99999999' 
TABS,ioos:station:wmo:42051:1,2011-12-03T17:30:00Z,29.6350,-93.6417,2.0,254.4864093,25.31215123,-99999.0,'11111222,11111222,99999999' 
TABS,ioos:station:wmo:42051:1,2011-12-03T18:00:00Z,29.6350,-93.6417,2.0,255.2003088,28.77455299,-99999.0,'11111222,11111222,99999999' 
TABS,ioos:station:wmo:42051:1,2011-12-03T18:30:00Z,29.6350,-93.6417,2.0,253.7872006,28.29520984,-99999.0,'11111222,11111222,99999999' 
TABS,ioos:station:wmo:42051:1,2011-12-03T19:00:00Z,29.6350,-93.6417,2.0,256.9552857,25.91881556,-99999.0,'11111222,11111222,99999999' 
TABS,ioos:station:wmo:42051:1,2011-12-03T19:30:00Z,29.6350,-93.6417,2.0,255.0361997,26.5295948,-99999.0,'11111222,11111222,99999999' 
TABS,ioos:station:wmo:42051:1,2011-12-03T20:00:00Z,29.6350,-93.6417,2.0,253.5122135,22.79737924,-99999.0,'11111222,11111222,99999999' 
TABS,ioos:station:wmo:42051:1,2011-12-03T20:30:00Z,29.6350,-93.6417,2.0,253.9848193,23.81421844,-99999.0,'11111222,11111222,99999999' 
TABS,ioos:station:wmo:42051:1,2011-12-03T21:00:00Z,29.6350,-93.6417,2.0,253.4952563,23.65461477,-99999.0,'11111222,11111222,99999999' 
TABS,ioos:station:wmo:42051:1,2011-12-03T21:30:00Z,29.6350,-93.6417,2.0,267.180241,27.24297524,-99999.0,'11111222,11111222,99999999' 
TABS,ioos:station:wmo:42051:1,2011-12-03T22:00:00Z,29.6350,-93.6417,2.0,260.4601454,25.64462127,-99999.0,'11111222,11111222,99999999' 
TABS,ioos:station:wmo:42051:1,2011-12-03T22:30:00Z,29.6350,-93.6417,2.0,258.304506,23.63056707,-99999.0,'11111222,11111222,99999999' 
TABS,ioos:station:wmo:42051:1,2011-12-03T23:00:00Z,29.6350,-93.6417,2.0,256.0211326,21.65116625,-99999.0,'11111222,11111222,99999999' 
TABS,ioos:station:wmo:42051:1,2011-12-03T23:30:00Z,29.6350,-93.6417,2.0,266.5492845,21.2685519,-99999.0,'11111222,11111222,99999999' 
TABS,ioos:station:wmo:42051:1,2011-12-04T00:00:00Z,29.6350,-93.6417,2.0,269.8995431,22.91003492,-99999.0,'11111222,11111222,99999999' 
TABS,ioos:station:wmo:42051:1,2011-12-04T00:30:00Z,29.6350,-93.6417,2.0,266.0710735,23.64555984,-99999.0,'11111222,11111222,99999999' 
TABS,ioos:station:wmo:42051:1,2011-12-04T01:00:00Z,29.6350,-93.6417,2.0,262.6033154,26.72234271,-99999.0,'11111222,11111222,99999999' 
TABS,ioos:station:wmo:42051:1,2011-12-04T01:30:00Z,29.6350,-93.6417,2.0,262.8376621,25.02525325,-99999.0,'11111222,11111222,99999999' 
TABS,ioos:station:wmo:42051:1,2011-12-04T02:00:00Z,29.6350,-93.6417,2.0,252.8574046,19.20307527,-99999.0,'11111222,11111222,99999999' 
TABS,ioos:station:wmo:42051:1,2011-12-04T02:30:00Z,29.6350,-93.6417,2.0,258.145261,20.6401938,-99999.0,'11111222,11111222,99999999' 
TABS,ioos:station:wmo:42051:1,2011-12-04T03:00:00Z,29.6350,-93.6417,2.0,258.8289935,25.80895968,-99999.0,'11111222,11111222,99999999' 
TABS,ioos:station:wmo:42051:1,2011-12-04T03:30:00Z,29.6350,-93.6417,2.0,253.6813052,24.05921237,-99999.0,'11111222,11111222,99999999' 
TABS,ioos:station:wmo:42051:1,2011-12-04T04:00:00Z,29.6350,-93.6417,2.0,256.1247118,22.39340305,-99999.0,'11111222,11111222,99999999' 
TABS,ioos:station:wmo:42051:1,2011-12-04T04:30:00Z,29.6350,-93.6417,2.0,246.9604304,25.96069529,-99999.0,'11111222,11111222,99999999' 
TABS,ioos:station:wmo:42051:1,2011-12-04T05:00:00Z,29.6350,-93.6417,2.0,242.1694325,25.31846164,-99999.0,'11111222,11111222,99999999' 
TABS,ioos:station:wmo:42051:1,2011-12-04T05:30:00Z,29.6350,-93.6417,2.0,245.9437852,24.92475075,-99999.0,'11111222,11111222,99999999' 
TABS,ioos:station:wmo:42051:1,2011-12-04T06:00:00Z,29.6350,-93.6417,2.0,240.9353095,22.86989725,-99999.0,'11111222,11111222,99999999' 
TABS,ioos:station:wmo:42051:1,2011-12-04T06:30:00Z,29.6350,-93.6417,2.0,245.975556,20.78008662,-99999.0,'11111222,11111222,99999999' 
TABS,ioos:station:wmo:42051:1,2011-12-04T07:00:00Z,29.6350,-93.6417,2.0,234.3281589,21.89878992,-99999.0,'11111222,11111222,99999999' 
TABS,ioos:station:wmo:42051:1,2011-12-04T07:30:00Z,29.6350,-93.6417,2.0,244.794567,23.17666499,-99999.0,'11111222,11111222,99999999' 
TABS,ioos:station:wmo:42051:1,2011-12-04T08:00:00Z,29.6350,-93.6417,2.0,243.0474632,21.84241058,-99999.0,'11111222,11111222,99999999' 
TABS,ioos:station:wmo:42051:1,2011-12-04T08:30:00Z,29.6350,-93.6417,2.0,236.3739273,22.22962438,-99999.0,'11111222,11111222,99999999' 
TABS,ioos:station:wmo:42051:1,2011-12-04T09:00:00Z,29.6350,-93.6417,2.0,257.2329991,20.90685294,-99999.0,'11111222,11111222,99999999' 
TABS,ioos:station:wmo:42051:1,2011-12-04T09:30:00Z,29.6350,-93.6417,2.0,246.8758413,18.10454639,-99999.0,'11111222,11111222,99999999' 
TABS,ioos:station:wmo:42051:1,2011-12-04T10:00:00Z,29.6350,-93.6417,2.0,251.6548317,16.07703953,-99999.0,'11111222,11111222,99999999' 
TABS,ioos:station:wmo:42051:1,2011-12-04T10:30:00Z,29.6350,-93.6417,2.0,262.7046501,12.12816969,-99999.0,'11111222,11111222,99999999' 
TABS,ioos:station:wmo:42051:1,2011-12-04T11:00:00Z,29.6350,-93.6417,2.0,271.516061,12.85449727,-99999.0,'11111222,11111222,99999999' 
TABS,ioos:station:wmo:42051:1,2011-12-04T11:30:00Z,29.6350,-93.6417,2.0,259.0424626,11.78484196,-99999.0,'11111222,11111222,99999999' 
TABS,ioos:station:wmo:42051:1,2011-12-04T12:00:00Z,29.6350,-93.6417,2.0,265.5505261,11.34418353,-99999.0,'11111222,11111222,99999999' 
TABS,ioos:station:wmo:42051:1,2011-12-04T12:30:00Z,29.6350,-93.6417,2.0,271.3355475,13.73372855,-99999.0,'11111222,11111222,99999999' 
TABS,ioos:station:wmo:42051:1,2011-12-04T13:00:00Z,29.6350,-93.6417,2.0,278.0337692,14.23973665,-99999.0,'11111222,11111222,99999999' 
TABS,ioos:station:wmo:42051:1,2011-12-04T13:30:00Z,29.6350,-93.6417,2.0,273.7199516,15.72311992,-99999.0,'11111222,11111222,99999999' 
TABS,ioos:station:wmo:42051:1,2011-12-04T14:00:00Z,29.6350,-93.6417,2.0,270.4931232,16.28060195,-99999.0,'11111222,11111222,99999999' 
TABS,ioos:station:wmo:42051:1,2011-12-04T14:30:00Z,29.6350,-93.6417,2.0,261.652247,15.29200118,-99999.0,'11111222,11111222,99999999' 
TABS,ioos:station:wmo:42051:1,2011-12-04T15:00:00Z,29.6350,-93.6417,2.0,273.7655209,14.01023911,-99999.0,'11111222,11111222,99999999' 
TABS,ioos:station:wmo:42051:1,2011-12-04T15:30:00Z,29.6350,-93.6417,2.0,275.6113508,18.30771695,-99999.0,'11111222,11111222,99999999' 
TABS,ioos:station:wmo:42051:1,2011-12-04T16:00:00Z,29.6350,-93.6417,2.0,276.0842982,18.02150105,-99999.0,'11111222,11111222,99999999' 
TABS,ioos:station:wmo:42051:1,2011-12-04T16:30:00Z,29.6350,-93.6417,2.0,264.5813397,15.99145084,-99999.0,'11111222,11111222,99999999' 
TABS,ioos:station:wmo:42051:1,2011-12-04T17:00:00Z,29.6350,-93.6417,2.0,272.3193375,17.79457221,-99999.0,'11111222,11111222,99999999' 
TABS,ioos:station:wmo:42051:1,2011-12-04T17:30:00Z,29.6350,-93.6417,2.0,265.0862433,17.16306791,-99999.0,'11111222,11111222,99999999' 
TABS,ioos:station:wmo:42051:1,2011-12-04T18:00:00Z,29.6350,-93.6417,2.0,265.8703549,21.52587745,-99999.0,'11111222,11111222,99999999' 
TABS,ioos:station:wmo:42051:1,2011-12-04T18:30:00Z,29.6350,-93.6417,2.0,265.8571017,19.38063208,-99999.0,'11111222,11111222,99999999' 